When you browse on this site, cookies collect data to enhance your experience and personalize the content and advertising you see.
Visit our Privacy Policy to learn more. By continuing to use the site, you agree to this use of cookies and data.

Hourly Weather Melipilla

Today, 6 July, Monday

Time Temperature Precipitation Wind Pressure Humidity
00:00 +9°C° 0 mm 0 mps 747 mmHg 87%
01:00 +9°C° 0 mm 0 mps 747 mmHg 88%
02:00 +9°C° 0 mm 0 mps 747 mmHg 88%
03:00 +8°C° 0 mm 0 mps 747 mmHg 87%
04:00 +8°C° 0 mm 0 mps 746 mmHg 87%
05:00 +8°C° 0 mm 0 mps 746 mmHg 87%
06:00 +8°C° 0 mm 0 mps 746 mmHg 87%
07:00 +8°C° 0 mm 0 mps 745 mmHg 87%
08:00 +9°C° 0 mm 0 mps 746 mmHg 83%
09:00 +11°C° 0 mm 1 mps 746 mmHg 80%
10:00 +12°C° 0 mm 1 mps 746 mmHg 77%
11:00 +13°C° 0 mm 1 mps 745 mmHg 74%
12:00 +14°C° 0 mm 1 mps 745 mmHg 71%
13:00 +15°C° 0 mm 1 mps 744 mmHg 68%
14:00 +14°C° 0 mm 1 mps 745 mmHg 72%
15:00 +14°C° 0 mm 1 mps 745 mmHg 76%
16:00 +13°C° 0 mm 1 mps 745 mmHg 80%
17:00 +12°C° 0 mm 1 mps 745 mmHg 83%
18:00 +11°C° 0 mm 1 mps 746 mmHg 86%
19:00 +9°C° 0 mm 0 mps 746 mmHg 90%
20:00 +9°C° 0 mm 0 mps 746 mmHg 90%
21:00 +9°C° 0 mm 0 mps 746 mmHg 90%
22:00 +8°C° 0 mm 0 mps 747 mmHg 90%
23:00 +8°C° 0 mm 0 mps 747 mmHg 90%

Tomorrow, 7 July, Tuesday

Time Temperature Precipitation Wind Pressure Humidity
00:00 +8°C° 0 mm 0 mps 747 mmHg 90%
01:00 +8°C° 0 mm 0 mps 748 mmHg 90%
02:00 +8°C° 0 mm 0 mps 748 mmHg 89%
03:00 +8°C° 0 mm 0 mps 748 mmHg 88%
04:00 +8°C° 0 mm 0 mps 749 mmHg 88%
05:00 +8°C° 0 mm 0 mps 749 mmHg 88%
06:00 +8°C° 0 mm 0 mps 749 mmHg 88%
07:00 +8°C° 0 mm 0 mps 750 mmHg 88%
08:00 +9°C° 0 mm 0 mps 750 mmHg 83%
09:00 +12°C° 0 mm 1 mps 751 mmHg 78%
10:00 +14°C° 0 mm 1 mps 751 mmHg 72%
11:00 +14°C° 0 mm 1 mps 751 mmHg 69%
12:00 +15°C° 0 mm 1 mps 751 mmHg 65%
13:00 +15°C° 0 mm 2 mps 751 mmHg 62%
14:00 +15°C° 0 mm 2 mps 751 mmHg 66%
15:00 +14°C° 0 mm 2 mps 751 mmHg 71%
16:00 +13°C° 0 mm 1 mps 751 mmHg 76%
17:00 +12°C° 0 mm 1 mps 752 mmHg 80%
18:00 +10°C° 0 mm 0 mps 752 mmHg 83%
19:00 +9°C° 0 mm 0 mps 752 mmHg 87%
20:00 +9°C° 0 mm 0 mps 752 mmHg 87%
21:00 +9°C° 0 mm 0 mps 752 mmHg 87%
22:00 +9°C° 0 mm 0 mps 752 mmHg 87%
23:00 +9°C° 0 mm 0 mps 752 mmHg 86%

Day after tomorrow, 8 July, Wednesday

Time Temperature Precipitation Wind Pressure Humidity
00:00 +9°C° 0 mm 0 mps 752 mmHg 86%
01:00 +8°C° 0 mm 0 mps 752 mmHg 85%
02:00 +8°C° 0 mm 0 mps 752 mmHg 84%
03:00 +9°C° 0 mm 0 mps 752 mmHg 84%
04:00 +9°C° 0 mm 0 mps 752 mmHg 83%
05:00 +8°C° 0 mm 0 mps 752 mmHg 83%
06:00 +8°C° 0 mm 0 mps 752 mmHg 82%
07:00 +9°C° 0 mm 1 mps 753 mmHg 82%
08:00 +10°C° 0 mm 1 mps 752 mmHg 76%
09:00 +12°C° 0 mm 1 mps 752 mmHg 71%
10:00 +14°C° 0 mm 1 mps 752 mmHg 65%
11:00 +15°C° 0 mm 1 mps 751 mmHg 63%
12:00 +16°C° 0 mm 1 mps 751 mmHg 60%
13:00 +17°C° 0 mm 2 mps 750 mmHg 58%
14:00 +16°C° 0 mm 2 mps 750 mmHg 63%
15:00 +15°C° 0 mm 1 mps 750 mmHg 69%
16:00 +15°C° 0 mm 1 mps 750 mmHg 74%
17:00 +14°C° 0 mm 1 mps 751 mmHg 77%
18:00 +12°C° 0 mm 1 mps 751 mmHg 80%
19:00 +10°C° 0 mm 0 mps 751 mmHg 83%
20:00 +10°C° 0 mm 0 mps 751 mmHg 83%
21:00 +10°C° 0 mm 0 mps 751 mmHg 83%
22:00 +10°C° 0 mm 0 mps 751 mmHg 82%
23:00 +10°C° 0 mm 0 mps 751 mmHg 82%

9 July, Thursday

Time Temperature Precipitation Wind Pressure Humidity
00:00 +10°C° 0 mm 0 mps 751 mmHg 81%
01:00 +10°C° 0 mm 0 mps 750 mmHg 81%
02:00 +10°C° 0 mm 0 mps 750 mmHg 81%
03:00 +10°C° 0 mm 0 mps 750 mmHg 80%
04:00 +10°C° 0 mm 0 mps 750 mmHg 80%
05:00 +9°C° 0 mm 0 mps 750 mmHg 80%
06:00 +9°C° 0 mm 0 mps 750 mmHg 81%
07:00 +9°C° 0 mm 0 mps 750 mmHg 81%
08:00 +10°C° 0 mm 0 mps 750 mmHg 77%
09:00 +13°C° 0 mm 1 mps 750 mmHg 73%
10:00 +14°C° 0 mm 1 mps 750 mmHg 69%
11:00 +15°C° 0 mm 1 mps 750 mmHg 66%
12:00 +16°C° 0 mm 1 mps 750 mmHg 63%
13:00 +18°C° 0 mm 1 mps 749 mmHg 60%
14:00 +18°C° 0 mm 1 mps 749 mmHg 65%
15:00 +16°C° 0 mm 1 mps 749 mmHg 70%
16:00 +15°C° 0 mm 1 mps 749 mmHg 75%
17:00 +14°C° 0 mm 1 mps 750 mmHg 79%
18:00 +13°C° 0 mm 1 mps 750 mmHg 83%
19:00 +10°C° 0 mm 0 mps 750 mmHg 87%
20:00 +10°C° 0 mm 0 mps 750 mmHg 87%
21:00 +10°C° 0 mm 0 mps 750 mmHg 87%
22:00 +9°C° 0 mm 0 mps 750 mmHg 86%
23:00 +9°C° 0 mm 0 mps 750 mmHg 86%

10 July, Friday

Time Temperature Precipitation Wind Pressure Humidity
00:00 +9°C° 0 mm 0 mps 750 mmHg 86%
01:00 +9°C° 0 mm 0 mps 749 mmHg 86%
02:00 +9°C° 0 mm 0 mps 749 mmHg 86%
03:00 +9°C° 0 mm 0 mps 749 mmHg 85%
04:00 +8°C° 0 mm 0 mps 749 mmHg 85%
05:00 +8°C° 0 mm 0 mps 749 mmHg 85%
06:00 +9°C° 0 mm 1 mps 749 mmHg 84%
07:00 +9°C° 0 mm 1 mps 749 mmHg 84%
08:00 +11°C° 0 mm 1 mps 749 mmHg 79%
09:00 +13°C° 0 mm 1 mps 749 mmHg 74%
10:00 +15°C° 0 mm 1 mps 749 mmHg 69%
11:00 +15°C° 0 mm 1 mps 749 mmHg 67%
12:00 +16°C° 0 mm 1 mps 749 mmHg 66%
13:00 +17°C° 0 mm 2 mps 749 mmHg 65%
14:00 +17°C° 0 mm 2 mps 749 mmHg 69%
15:00 +16°C° 0 mm 1 mps 749 mmHg 73%
16:00 +16°C° 0 mm 1 mps 749 mmHg 78%
17:00 +14°C° 0 mm 1 mps 750 mmHg 81%
18:00 +13°C° 0 mm 1 mps 750 mmHg 84%
19:00 +12°C° 0 mm 1 mps 750 mmHg 88%
20:00 +12°C° 0 mm 1 mps 750 mmHg 88%
21:00 +11°C° 0 mm 0 mps 750 mmHg 88%
22:00 +10°C° 0 mm 0 mps 750 mmHg 88%
23:00 +10°C° 0 mm 0 mps 750 mmHg 88%

11 July, Saturday

Time Temperature Precipitation Wind Pressure Humidity
00:00 +10°C° 0 mm 0 mps 750 mmHg 88%
01:00 +10°C° 0 mm 0 mps 750 mmHg 88%
02:00 +10°C° 0 mm 0 mps 750 mmHg 88%
03:00 +10°C° 0 mm 0 mps 750 mmHg 88%
04:00 +10°C° 0 mm 0 mps 749 mmHg 88%
05:00 +10°C° 0 mm 0 mps 750 mmHg 88%
06:00 +10°C° 0 mm 0 mps 750 mmHg 88%
07:00 +10°C° 0 mm 0 mps 750 mmHg 87%
08:00 +12°C° 0 mm 1 mps 750 mmHg 83%
09:00 +14°C° 0 mm 1 mps 750 mmHg 79%
10:00 +15°C° 0 mm 1 mps 750 mmHg 75%
11:00 +16°C° 0 mm 2 mps 750 mmHg 73%
12:00 +17°C° 0 mm 2 mps 749 mmHg 72%
13:00 +18°C° 0 mm 2 mps 749 mmHg 70%
14:00 +17°C° 0 mm 2 mps 749 mmHg 74%
15:00 +17°C° 0 mm 2 mps 749 mmHg 78%
16:00 +18°C° 0 mm 1 mps 749 mmHg 81%
17:00 +16°C° 0 mm 1 mps 749 mmHg 85%
18:00 +14°C° 0 mm 1 mps 749 mmHg 88%
19:00 +13°C° 0 mm 1 mps 750 mmHg 91%
20:00 +13°C° 0 mm 1 mps 749 mmHg 91%
21:00 +13°C° 0 mm 1 mps 749 mmHg 91%
22:00 +12°C° 0 mm 1 mps 749 mmHg 91%
23:00 +12°C° 0 mm 1 mps 749 mmHg 92%
Show more